GW3397 Weather Reports


Display with metric or nautical units.
time (UTC)temp
F
wind
direction
speed
MPH
gust
MPH
rain 1hr
in
rain 24hr
in
rain mn
in
humidity
%
barometer
mb
20260506095655 50 338 0.0 0.0 0.00 0.01 0.01 95 1011.3
20260506095151 50 166 2.0 2.0 0.00 0.01 0.01 95 1010.8
20260506094649 50 139 1.0 2.0 0.07 0.01 0.01 95 1011.0
20260506094146 50 316 2.0 2.0 0.07 0.01 0.01 95 1011.0
20260506093645 50 317 3.0 3.0 0.00 0.00 0.00 95 1011.3
20260506093142 50 29 1.0 3.0 0.00 0.00 0.00 95 1010.9
20260506092639 50 340 0.0 2.0 0.00 0.00 0.00 94 1010.8
20260506092136 50 251 2.0 2.0 0.00 0.00 0.00 94 1010.9
20260506091634 50 310 0.0 0.0 0.00 0.00 0.00 94 1010.8
20260506091131 50 88 0.0 0.0 0.00 0.00 0.00 94 1010.8
20260506090630 50 220 0.0 0.0 0.00 0.00 0.00 94 1010.9
20260506090125 49 1 0.0 0.0 0.00 0.00 0.00 94 1010.7
20260506085622 50 28 0.0 0.0 0.00 0.00 0.00 94 1010.8
20260506085119 50 25 0.0 0.0 0.00 0.00 0.00 94 1010.8
20260506084615 50 14 0.0 0.0 0.00 0.00 0.00 94 1010.9
20260506084112 50 10 0.0 0.0 0.00 0.00 0.00 94 1010.9
20260506083609 50 332 0.0 0.0 0.00 0.00 0.00 94 1011.1
20260506083107 50 354 0.0 0.0 0.00 0.00 0.00 94 1011.4
20260506082603 50 122 1.0 2.0 0.00 0.00 0.00 94 1010.9
20260506082059 50 196 0.0 0.0 0.00 0.00 0.00 94 1010.9
20260506081557 50 335 0.0 0.0 0.00 0.00 0.00 93 1011.1
20260506081054 50 308 0.0 0.0 0.00 0.00 0.00 93 1011.6
20260506080552 50 314 0.0 0.0 0.00 0.00 0.00 93 1011.3
20260506073032 50 336 0.0 2.0 0.00 0.00 0.00 93 1011.8
20260506072529 50 316 2.0 3.0 0.00 0.00 0.00 93 1011.8
20260506072027 50 308 2.0 3.0 0.00 0.00 0.00 93 1011.9
20260506071525 50 326 2.0 5.0 0.00 0.00 0.00 93 1011.9
20260506071022 50 296 1.0 5.0 0.00 0.00 0.00 93 1012.0
20260506070519 51 324 1.0 3.0 0.00 0.00 0.00 93 1011.9
20260506062456 51 323 2.0 3.0 0.00 0.00 0.00 92 1012.2
20260506061953 51 301 2.0 2.0 0.00 0.00 0.00 92 1012.1
20260506061449 51 297 2.0 3.0 0.00 0.00 0.00 91 1011.8
20260506060947 51 298 2.0 2.0 0.00 0.00 0.00 91 1012.1
20260506060445 51 330 1.0 2.0 0.00 0.00 0.00 91 1012.0
20260506050914 53 297 1.0 3.0 0.00 0.00 0.00 89 1012.5
20260506050412 54 311 5.0 6.0 0.00 0.00 0.00 88 1012.4
20260506044902 54 330 2.0 5.0 0.00 0.00 0.00 87 1012.5
20260506044400 54 329 4.0 7.0 0.00 0.00 0.00 87 1012.7
20260506043856 54 306 3.0 5.0 0.00 0.00 0.00 86 1012.7
20260506043354 55 325 1.0 2.0 0.00 0.00 0.00 86 1012.6
20260506042852 55 323 2.0 5.0 0.00 0.00 0.00 86 1012.9
20260506042351 55 315 2.0 5.0 0.00 0.00 0.00 86 1012.7
20260506041849 54 2 1.0 1.0 0.00 0.00 0.00 87 1012.6
20260506041346 55 346 0.0 0.0 0.00 0.00 0.00 87 1012.7
20260506040843 54 305 1.0 2.0 0.00 0.00 0.00 87 1012.7
20260506040340 55 339 0.0 2.0 0.00 0.00 0.00 88 1012.9
20260506035836 55 321 2.0 2.0 0.00 0.10 0.10 87 1012.9
20260506035334 55 317 0.0 0.0 0.00 0.10 0.10 86 1013.2
20260506034831 55 297 1.0 1.0 0.00 0.10 0.10 86 1013.0
20260506034328 55 323 0.0 0.0 0.00 0.10 0.10 86 1013.1
20260506033825 55 314 0.0 0.0 0.00 0.10 0.10 86 1012.9
20260506033322 55 324 0.0 0.0 0.00 0.10 0.10 85 1012.9
20260506032819 55 306 0.0 1.0 0.00 0.10 0.10 85 1013.1
20260506032316 55 131 1.0 1.0 0.00 0.10 0.10 84 1012.9
20260506031812 55 293 0.0 1.0 0.00 0.10 0.10 84 1012.9
20260506031310 55 20 0.0 1.0 0.00 0.10 0.10 84 1012.7
20260506030807 55 16 0.0 3.0 0.00 0.10 0.10 84 1012.5
20260506030305 55 296 1.0 5.0 0.00 0.10 0.10 83 1012.6
20260506025802 55 299 4.0 7.0 0.00 0.10 0.10 83 1012.7
20260506025258 55 305 5.0 6.0 0.00 0.10 0.10 83 1012.6
20260506024755 55 301 8.0 9.0 0.00 0.10 0.10 83 1012.5
20260506024252 55 328 5.0 7.0 0.00 0.10 0.10 83 1012.7
20260506023748 56 307 5.0 9.0 0.00 0.10 0.10 82 1012.6
20260506023245 55 252 6.0 10.0 0.00 0.10 0.10 82 1012.5
20260506022742 55 317 7.0 11.0 0.00 0.10 0.10 83 1012.5
20260506022240 55 260 7.0 10.0 0.00 0.10 0.10 83 1012.5
20260506021738 55 310 7.0 9.0 0.00 0.10 0.10 82 1012.3
20260506021234 56 325 6.0 8.0 0.00 0.10 0.10 82 1012.6
20260506020731 56 271 5.0 9.0 0.00 0.10 0.10 82 1012.6
20260506020229 56 284 6.0 9.0 0.00 0.10 0.10 82 1012.6
20260506015726 56 261 3.0 3.0 0.00 0.10 0.10 81 1012.7
20260506015224 56 284 6.0 10.0 0.00 0.10 0.10 81 1012.7
20260506014721 56 269 3.0 9.0 0.00 0.10 0.10 84 1012.3
20260506014217 57 273 5.0 11.0 0.00 0.10 0.10 84 1012.6
20260506013714 57 307 8.0 14.0 0.00 0.10 0.10 84 1012.1
20260506013211 58 311 9.0 10.0 0.00 0.10 0.10 84 1012.2
20260506012707 58 289 13.0 18.0 0.00 0.10 0.10 84 1012.1
20260506012205 58 313 7.0 13.0 0.00 0.10 0.10 85 1011.8
20260506011702 59 310 10.0 17.0 0.00 0.10 0.10 86 1011.9
20260506011158 59 278 9.0 13.0 0.00 0.10 0.10 87 1011.7
20260506010657 60 287 7.0 10.0 0.00 0.10 0.10 88 1011.6
20260506010153 60 306 10.0 16.0 0.00 0.10 0.10 89 1011.1
20260506005650 61 313 9.0 11.0 0.00 0.10 0.10 90 1011.1
20260506005147 62 318 9.0 11.0 0.00 0.10 0.10 90 1011.2
20260506004643 62 310 5.0 5.0 0.00 0.10 0.10 88 1010.8
20260506004141 62 294 0.0 0.0 0.00 0.10 0.10 86 1010.4
20260506003637 61 296 0.0 0.0 0.00 0.10 0.10 88 1010.2
20260506003133 62 296 0.0 0.0 0.00 0.10 0.10 88 1010.3
20260506002629 62 303 0.0 0.0 0.00 0.10 0.10 87 1010.2
20260506002125 62 295 0.0 0.0 0.00 0.10 0.10 87 1010.2
20260506001621 62 297 0.0 0.0 0.00 0.10 0.10 87 1010.1
20260506001119 62 220 1.0 1.0 0.00 0.10 0.10 87 1010.1
20260506000616 63 238 1.0 2.0 0.00 0.10 0.10 86 1010.4
20260506000113 63 223 2.0 2.0 0.00 0.10 0.10 84 1010.2
20260505235611 63 340 1.0 1.0 0.00 0.10 0.10 84 1009.9
20260505235108 63 285 1.0 1.0 0.00 0.10 0.10 86 1009.8
20260505234605 62 291 1.0 2.0 0.00 0.10 0.10 86 1009.8
20260505234101 63 349 0.0 0.0 0.00 0.10 0.10 86 1009.7
20260505233559 63 336 0.0 0.0 0.00 0.10 0.10 86 1009.6
20260505233056 64 12 2.0 2.0 0.00 0.10 0.10 85 1009.8
20260505232554 64 336 1.0 2.0 0.00 0.10 0.10 82 1009.6
20260505232051 65 338 0.0 0.0 0.00 0.10 0.10 80 1009.3
20260505231548 65 315 0.0 1.0 0.00 0.10 0.10 79 1009.0
20260505231047 65 318 0.0 1.0 0.00 0.10 0.10 79 1009.1
20260505230544 65 278 0.0 1.0 0.00 0.10 0.10 79 1009.2
20260505230040 65 312 0.0 2.0 0.00 0.10 0.10 79 1008.8
20260505225537 65 277 2.0 2.0 0.00 0.10 0.10 78 1009.3
20260505225033 65 298 2.0 5.0 0.00 0.10 0.10 78 1009.0
20260505224530 65 226 5.0 6.0 0.00 0.10 0.10 77 1009.0
20260505224028 65 230 2.0 8.0 0.00 0.10 0.10 77 1009.1
20260505223525 65 203 5.0 7.0 0.00 0.10 0.10 78 1008.7
20260505223021 65 174 5.0 7.0 0.00 0.10 0.10 79 1009.0
20260505222517 65 212 6.0 9.0 0.00 0.10 0.10 79 1009.2
20260505222013 64 213 6.0 10.0 0.00 0.10 0.10 80 1009.1
20260505221511 64 163 4.0 8.0 0.00 0.10 0.10 81 1009.1
20260505221007 63 204 4.0 9.0 0.00 0.10 0.10 83 1009.1
20260505220504 63 172 3.0 5.0 0.00 0.10 0.10 84 1009.2
20260505220002 62 216 3.0 3.0 0.00 0.10 0.10 85 1009.1
20260505215500 63 24 2.0 5.0 0.00 0.10 0.10 86 1009.3
20260505214957 63 183 0.0 3.0 0.00 0.10 0.10 85 1009.4
20260505214455 63 242 1.0 5.0 0.00 0.10 0.10 86 1009.4
20260505213952 63 296 1.0 2.0 0.00 0.10 0.10 86 1009.3
20260505213450 63 295 1.0 5.0 0.05 0.10 0.10 85 1009.2
20260505212946 62 235 4.0 6.0 0.00 0.09 0.09 87 1009.5
20260505212443 62 248 3.0 5.0 0.00 0.09 0.09 89 1009.7
20260505211939 62 294 2.0 3.0 0.00 0.09 0.09 89 1009.6
20260505211437 62 328 2.0 6.0 0.00 0.09 0.09 89 1009.6
20260505210933 62 299 5.0 7.0 0.00 0.09 0.09 88 1009.4
20260505210430 62 278 7.0 10.0 0.00 0.09 0.09 87 1009.3
20260505205927 62 304 6.0 14.0 0.07 0.09 0.09 89 1009.3
20260505205426 62 313 9.0 15.0 0.07 0.09 0.09 88 1009.1
20260505204922 61 271 9.0 17.0 0.07 0.08 0.08 88 1009.1
20260505204420 61 306 7.0 8.0 0.07 0.08 0.08 90 1009.2
20260505203917 61 280 2.0 7.0 0.00 0.07 0.07 90 1009.0
20260505203413 62 312 6.0 9.0 0.00 0.07 0.07 88 1008.3
20260505202909 62 332 7.0 15.0 0.05 0.07 0.07 86 1008.5
20260505202406 62 316 10.0 17.0 0.05 0.07 0.07 85 1008.7
20260505201902 63 297 8.0 16.0 0.00 0.06 0.06 84 1009.3
20260505201359 65 325 8.0 16.0 0.00 0.06 0.06 78 1008.7
20260505200858 66 334 8.0 25.0 0.00 0.06 0.06 77 1008.7
20260505200354 70 307 13.0 32.0 0.00 0.06 0.06 72 1008.2
20260505195850 71 318 7.0 10.0 0.00 0.06 0.06 67 1007.9
20260505195348 72 327 6.0 9.0 0.00 0.06 0.06 67 1007.4
20260505194844 74 333 5.0 9.0 0.00 0.06 0.06 67 1007.2
20260505194342 74 306 5.0 8.0 0.00 0.06 0.06 64 1007.2
20260505193837 73 307 3.0 5.0 0.00 0.06 0.06 67 1007.1
20260505193335 72 235 4.0 6.0 0.00 0.06 0.06 69 1007.1
20260505192833 71 274 3.0 6.0 0.00 0.06 0.06 69 1007.0
20260505192331 69 299 4.0 7.0 0.00 0.06 0.06 73 1007.4
20260505191828 68 327 3.0 5.0 0.00 0.06 0.06 77 1007.3
20260505191327 65 308 1.0 2.0 0.00 0.06 0.06 84 1007.2
20260505190823 64 51 2.0 3.0 0.00 0.06 0.06 86 1007.0
20260505190318 64 188 2.0 2.0 0.00 0.06 0.06 85 1007.5
20260505185814 64 316 3.0 7.0 0.12 0.06 0.06 85 1008.1
20260505185311 65 339 12.0 14.0 0.12 0.06 0.06 82 1008.5
20260505184807 69 324 18.0 27.0 0.00 0.04 0.04 71 1008.8
20260505184304 70 291 7.0 13.0 0.00 0.04 0.04 64 1008.1
20260505183801 70 264 5.0 7.0 0.00 0.04 0.04 64 1007.7
20260505183258 70 260 4.0 8.0 0.00 0.04 0.04 63 1007.5
20260505182755 70 221 5.0 7.0 0.00 0.04 0.04 61 1007.3
20260505182251 72 204 11.0 20.0 0.00 0.04 0.04 62 1007.2
20260505181748 71 269 9.0 14.0 0.12 0.04 0.04 58 1007.1
20260505181246 71 254 8.0 11.0 0.19 0.04 0.04 66 1007.0
20260505180742 75 272 11.0 17.0 0.00 0.01 0.01 56 1007.0
20260505180238 77 228 10.0 22.0 0.00 0.01 0.01 44 1006.7
20260505175735 78 258 7.0 15.0 0.00 0.01 0.01 44 1006.9
20260505175231 78 287 3.0 8.0 0.00 0.01 0.01 44 1006.8
20260505174728 79 208 7.0 10.0 0.00 0.01 0.01 43 1007.1
20260505174225 79 229 7.0 11.0 0.00 0.01 0.01 42 1007.1
20260505173721 79 203 5.0 11.0 0.00 0.01 0.01 41 1007.0
20260505173218 80 337 5.0 15.0 0.00 0.01 0.01 40 1006.9
20260505172715 80 252 8.0 10.0 0.00 0.01 0.01 41 1007.0
20260505172212 80 210 8.0 16.0 0.00 0.01 0.01 40 1006.7
20260505171707 80 306 5.0 8.0 0.00 0.01 0.01 42 1006.9
20260505171204 79 270 5.0 15.0 0.00 0.01 0.01 41 1007.1
20260505170701 79 258 8.0 13.0 0.00 0.01 0.01 41 1006.8
20260505170158 81 259 10.0 18.0 0.00 0.01 0.01 39 1007.1
20260505165657 81 229 8.0 15.0 0.00 0.01 0.01 39 1007.0
20260505165154 81 218 6.0 15.0 0.00 0.01 0.01 39 1007.3
20260505164649 81 246 14.0 17.0 0.00 0.01 0.01 39 1007.2
20260505164147 80 229 11.0 15.0 0.00 0.01 0.01 40 1007.2
20260505163646 81 208 8.0 17.0 0.00 0.01 0.01 41 1007.5
20260505163143 80 237 7.0 13.0 0.00 0.01 0.01 42 1007.6
20260505162640 80 296 4.0 10.0 0.00 0.01 0.01 43 1007.5
20260505162137 79 283 5.0 16.0 0.00 0.01 0.01 41 1007.9
20260505161634 80 277 9.0 14.0 0.00 0.01 0.01 43 1007.6
20260505161131 79 212 7.0 15.0 0.00 0.01 0.01 43 1007.9
20260505160629 80 252 9.0 14.0 0.00 0.01 0.01 44 1007.9
20260505160126 78 221 7.0 21.0 0.00 0.01 0.01 44 1008.0
20260505153107 77 295 6.0 27.0 0.00 0.01 0.01 48 1008.2
20260505152603 77 218 9.0 15.0 0.00 0.01 0.01 48 1008.3
20260505152058 77 288 6.0 14.0 0.00 0.01 0.01 49 1008.4
20260505151553 76 204 9.0 14.0 0.00 0.01 0.01 49 1008.7
20260505151051 76 198 9.0 17.0 0.00 0.01 0.01 50 1008.3
20260505150547 76 262 11.0 17.0 0.00 0.01 0.01 50 1008.3
20260505140513 71 210 11.0 17.0 0.00 0.01 0.01 56 1009.1
20260505124932 68 201 9.0 10.0 0.00 0.01 0.01 61 1009.4
20260505124429 67 207 5.0 9.0 0.00 0.01 0.01 62 1009.4
20260505123925 67 218 9.0 11.0 0.00 0.01 0.01 61 1009.3
20260505123421 66 252 6.0 11.0 0.00 0.01 0.01 63 1009.3
20260505122917 66 141 7.0 10.0 0.00 0.01 0.01 63 1009.2
20260505122415 66 233 5.0 10.0 0.00 0.01 0.01 62 1009.6
20260505121911 66 214 10.0 15.0 0.00 0.01 0.01 61 1009.2
20260505121408 66 43 3.0 16.0 0.00 0.01 0.01 62 1009.2
20260505120904 66 251 7.0 14.0 0.00 0.01 0.01 62 1009.2
20260505120401 66 237 13.0 18.0 0.05 0.01 0.01 62 1009.2
20260505115859 67 225 6.0 17.0 0.05 0.01 0.01 62 1009.2
20260505115357 67 208 8.0 9.0 0.00 0.00 0.00 63 1009.3
20260505114855 65 212 9.0 11.0 0.00 0.00 0.00 64 1009.4
20260505114351 66 167 3.0 10.0 0.00 0.00 0.00 64 1009.5
20260505113847 64 200 9.0 17.0 0.00 0.00 0.00 64 1009.5
20260505113344 63 169 7.0 14.0 0.00 0.00 0.00 66 1009.6
20260505112839 63 201 9.0 13.0 0.00 0.00 0.00 66 1009.4
20260505112337 63 225 9.0 15.0 0.00 0.00 0.00 67 1009.4
20260505111832 62 215 9.0 13.0 0.00 0.00 0.00 68 1009.4
20260505111328 62 233 6.0 11.0 0.00 0.00 0.00 69 1009.3
20260505110825 62 202 9.0 11.0 0.00 0.00 0.00 69 1009.3
20260505110322 62 238 7.0 13.0 0.00 0.00 0.00 69 1009.1
20260505101756 58 290 1.0 3.0 0.00 0.00 0.00 77 1008.8
20260505101252 58 250 2.0 3.0 0.00 0.00 0.00 78 1009.0
20260505100748 58 173 4.0 5.0 0.00 0.00 0.00 78 1009.1
20260505100245 58 230 1.0 2.0 0.00 0.00 0.00 79 1009.0